This is the latest recevied weather packets stored in our database for station/object FW0727. If no packets are shown the sender has not sent any weather packets the latest 1 day(s).
| Time | Temp. | Humidity | Pressure | Rain* | Wind** | Luminosity | Snow |
|---|---|---|---|---|---|---|---|
| 1778082488 | 23.89° C | 26% | 1011.9 hPa | - | - | - | - |
| 1778081797 | 24.44° C | 26% | 1011.9 hPa | - | - | - | - |
| 1778079385 | 24.44° C | 25% | 1012.2 hPa | - | - | - | - |
| 1778078365 | 24.44° C | 26% | 1012.3 hPa | - | - | - | - |
| 1778078020 | 24.44° C | 26% | 1012.3 hPa | - | - | - | - |
| 1778077675 | 24.44° C | 27% | 1012.2 hPa | - | - | - | - |
| 1778076977 | 24.44° C | 25% | 1012.2 hPa | - | - | - | - |
| 1778075589 | 24.44° C | 26% | 1012.4 hPa | - | - | - | - |
| 1778074900 | 24.44° C | 27% | 1012.4 hPa | - | - | - | - |
| 1778074546 | 24.44° C | 27% | 1012.4 hPa | - | - | - | - |
| 1778073160 | 24.44° C | 27% | 1012.5 hPa | - | - | - | - |
| 1778072807 | 23.89° C | 27% | 1012.5 hPa | - | - | - | - |
| 1778071412 | 23.89° C | 27% | 1012.7 hPa | - | - | - | - |
| 1778071411 | 23.89° C | 27% | 1012.7 hPa | - | - | - | - |
| 1778070375 | 23.89° C | 28% | 1012.9 hPa | - | - | - | - |
| 1778070030 | 23.89° C | 28% | 1012.8 hPa | - | - | - | - |
| 1778069685 | 23.89° C | 28% | 1012.9 hPa | - | - | - | - |
| 1778068295 | 23.89° C | 28% | 1013.2 hPa | - | - | - | - |
| 1778066562 | 23.89° C | 30% | 1013.4 hPa | - | - | - | - |
| 1778065182 | 23.33° C | 30% | 1013.5 hPa | - | - | - | - |
| 1778064476 | 22.78° C | 29% | 1013.6 hPa | - | - | - | - |
| 1778064131 | 23.33° C | 30% | 1013.6 hPa | - | - | - | - |
| 1778063786 | 23.33° C | 30% | 1013.7 hPa | - | - | - | - |
| 1778063096 | 23.33° C | 29% | 1013.7 hPa | - | - | - | - |
| 1778062751 | 22.78° C | 29% | 1013.7 hPa | - | - | - | - |
* Rain since midnight (hover to see other rain measurements)
** Current wind speed in m/s (hover to see current wind gust speed)